Weather History for KUES - December, 2011

Change the Weather History Date:

Wednesday, December 28, 2011

  Actual Average Record
Temperature  
Mean Temperature 19 °F -  
Max Temperature 26 °F 30 °F 63 °F (1984)
Min Temperature 12 °F 15 °F -8 °F (1961)
Degree Days  
Heating Degree Days 46    
Moisture  
Dew Point 13 °F    
Average Humidity 72    
Maximum Humidity 86    
Minimum Humidity 50    
Precipitation  
Precipitation 0.00 in - - ()
Sea Level Pressure  
Sea Level Pressure 29.95 in    
Wind  
Wind Speed 6 mph (SSW)    
Max Wind Speed 10 mph    
Max Gust Speed 17 mph    
Visibility 10 miles    
Events      
Averages and records for this station are not official NWS values.
T = Trace of Precipitation, MM = Missing Value Source: NWS Daily Summary

Daily Weather History Graph

Daily Weather History Graph

Search for Another Location

Airport or City:

Trip Planner

Search our weather history database for the weather conditions in past years. The results will help you decide how hot, cold, wet, or windy it might be!

Date:

Astronomy

Dec. 28, 2011 Rise Set
Actual Time 7:23 AM CST 4:25 PM CST
Civil Twilight 6:51 AM CST 4:57 PM CST
Nautical Twilight 6:15 AM CST 5:33 PM CST
Astronomical Twilight 5:40 AM CST 6:08 PM CST
Moon 9:43 AM CST (12/28) 9:08 PM CST (12/28)
Length of Visible Light 10h 06m
Length of Day
9h 01m
Waxing Crescent, 18% of the Moon is Illuminated
Dec 28
Waxing Crescent
Jan 1
First Quarter
Jan 9
Full
Jan 16
Last Quarter
Jan 23
New

Hourly Weather History & Observations

Time (CST) Temp. Windchill Dew Point Humidity Pressure Visibility Wind Dir Wind Speed Gust Speed Precip Events Conditions
12:15 AM 17.6 °F 5.7 °F 10.4 °F 73% 30.00 in 10.0 mi NW 10.4 mph 17.3 mph N/A   Clear
12:35 AM 17.6 °F 9.3 °F 10.4 °F 73% 29.99 in 10.0 mi NNW 5.8 mph - N/A   Clear
12:55 AM 17.6 °F 10.7 °F 8.6 °F 68% 30.00 in 10.0 mi NNW 4.6 mph - N/A   Clear
1:15 AM 17.6 °F 9.3 °F 10.4 °F 73% 30.00 in 10.0 mi NNW 5.8 mph - N/A   Clear
1:35 AM 17.6 °F 7.3 °F 10.4 °F 73% 30.01 in 10.0 mi NNW 8.1 mph - N/A   Clear
1:55 AM 17.6 °F 9.3 °F 10.4 °F 73% 30.01 in 10.0 mi NNW 5.8 mph - N/A   Clear
2:15 AM 17.6 °F 9.3 °F 10.4 °F 73% 30.01 in 10.0 mi NW 5.8 mph - N/A   Clear
2:35 AM 17.6 °F 10.7 °F 8.6 °F 68% 30.02 in 10.0 mi NNW 4.6 mph - N/A   Clear
2:55 AM 17.6 °F 9.3 °F 8.6 °F 68% 30.01 in 10.0 mi North 5.8 mph - N/A   Clear
3:15 AM 17.6 °F 10.7 °F 8.6 °F 68% 30.01 in 10.0 mi NNW 4.6 mph - N/A   Clear
3:35 AM 15.8 °F 8.6 °F 10.4 °F 79% 30.01 in 10.0 mi NNW 4.6 mph - N/A   Clear
3:55 AM 15.8 °F - 10.4 °F 79% 30.01 in 10.0 mi Calm Calm - N/A   Scattered Clouds
4:15 AM 14.0 °F 8.2 °F 10.4 °F 86% 30.02 in 10.0 mi WNW 3.5 mph - N/A   Clear
4:35 AM 14.0 °F 8.2 °F 10.4 °F 86% 30.02 in 10.0 mi WNW 3.5 mph - N/A   Clear
5:45 AM 12.2 °F 6.1 °F 8.6 °F 85% 30.02 in 10.0 mi NW 3.5 mph - N/A   Clear
6:45 AM 12.2 °F - 8.6 °F 85% 30.03 in 10.0 mi Calm Calm - N/A   Mostly Cloudy
7:45 AM 14.0 °F - 10.4 °F 86% 30.04 in 10.0 mi Calm Calm - N/A   Scattered Clouds
8:45 AM 15.8 °F - 10.4 °F 79% 30.05 in 10.0 mi Calm Calm - N/A   Scattered Clouds
9:45 AM 17.6 °F - 8.6 °F 68% 30.06 in 10.0 mi Calm Calm - N/A   Clear
10:45 AM 19.4 °F 14.3 °F 10.4 °F 68% 30.05 in 10.0 mi SW 3.5 mph - N/A   Scattered Clouds
12:45 PM 21.2 °F 13.6 °F 10.4 °F 63% 30.00 in 10.0 mi SSW 5.8 mph - N/A   Scattered Clouds
1:45 PM 23.0 °F 17.0 °F 10.4 °F 59% 29.97 in 10.0 mi South 4.6 mph - N/A   Mostly Cloudy
2:45 PM 24.8 °F 19.1 °F 8.6 °F 50% 29.95 in 10.0 mi SSE 4.6 mph - N/A   Mostly Cloudy
3:45 PM 24.8 °F 16.9 °F 10.4 °F 54% 29.94 in 10.0 mi SSE 6.9 mph - N/A   Clear
4:45 PM 23.0 °F 15.8 °F 12.2 °F 63% 29.94 in 10.0 mi SSE 5.8 mph - N/A   Clear
5:45 PM 21.2 °F - 12.2 °F 68% 29.93 in - Calm Calm - N/A   Clear
6:45 PM 21.2 °F 13.6 °F 12.2 °F 68% 29.90 in 10.0 mi SE 5.8 mph - N/A   Clear
7:45 PM 23.0 °F 14.7 °F 14.0 °F 68% 29.88 in 10.0 mi SSE 6.9 mph - N/A   Overcast
8:15 PM 23.0 °F 14.7 °F 14.0 °F 68% 29.88 in 10.0 mi SSE 6.9 mph - N/A   Overcast
8:35 PM 24.8 °F 16.9 °F 15.8 °F 69% 29.87 in 10.0 mi South 6.9 mph - N/A   Overcast
8:45 PM 24.8 °F 16.9 °F 15.8 °F 69% 29.86 in 10.0 mi SSE 6.9 mph - N/A   Overcast
8:55 PM 24.8 °F 16.9 °F 17.6 °F 74% 29.86 in 10.0 mi SSE 6.9 mph - N/A   Overcast
9:15 PM 24.8 °F 16.1 °F 17.6 °F 74% 29.85 in 10.0 mi SSE 8.1 mph - N/A   Overcast
9:35 PM 24.8 °F 16.1 °F 17.6 °F 74% 29.83 in 10.0 mi SSE 8.1 mph - N/A   Overcast
9:55 PM 26.6 °F 20.0 °F 19.4 °F 74% 29.83 in 10.0 mi SSE 5.8 mph - N/A   Overcast
10:15 PM 26.6 °F 21.2 °F 19.4 °F 74% 29.82 in 10.0 mi SSE 4.6 mph - N/A   Overcast
10:35 PM 26.6 °F 18.2 °F 19.4 °F 74% 29.80 in 10.0 mi SSE 8.1 mph - N/A   Mostly Cloudy
10:55 PM 26.6 °F 18.2 °F 21.2 °F 80% 29.79 in 10.0 mi SSE 8.1 mph - N/A   Clear
11:15 PM 26.6 °F 19.1 °F 21.2 °F 80% 29.79 in 10.0 mi South 6.9 mph - N/A   Clear
11:35 PM 26.6 °F 20.0 °F 21.2 °F 80% 29.78 in 10.0 mi South 5.8 mph - N/A   Scattered Clouds